STARLINK-3120 (49419 NORAD) Tracking and Keplerian Element Data

This shows tracking and keplerian element data for the satellite.

Feedback or suggestion? Click here.




ElementValue
Catalog49419
NameSTARLINK-3120
Epoch Orbit366
Epoch Day15.91668981
Epoch Year2022
RAAN185.3607
Inclination53.2174
Eccentricity0.0001498
Argument of Perigee48.0142
Mean Anonmoly20.8434
Mean Motion15.24896558
Decay Rate-0.00654751
L11 49419U 21104M 22015.91668981 -.00654751 00000+0 -27984-1 0 9993
L22 49419 53.2174 185.3607 0001498 48.0142 20.8434 15.24896558 3661

Live tracking and technical data element details for STARLINK-3120 (NORAD 49419). STARLINK-3120 can be tracked NOW for your location showing map with azimuth and elevation plus other details from your city location.

Track the satellite on the map from your city or location and see movement details for azimuth, elevation, latitude, longitude, range, height, and movement on the map or in text.







IsCatalogInMostPopularTable: catalog: 49419, numindb: 7
Update: records affected: 1



GetName: 49419 STARLINK-3120

Hit Count: updated at: Thu, 20 Jan 2022 16:56:03 GMT